Warrenton, VA

3:19 PM EDT on July 23, 2017 (GMT -0400)
Warrenton

Weather History for KHWY - July, 2013

Change the Weather History Date:

Monday, July 1, 2013

  Actual Average (KHEF) Record (KHEF)
Temperature  
Mean Temperature 78 °F -  
Max Temperature 84 °F 83 °F 96 °F (2012)
Min Temperature 71 °F 61 °F 57 °F (2008)
Cooling Degree Days 12    
Growing Degree Days 28 (Base 50)    
Moisture  
Dew Point 75 °F    
Average Humidity 94    
Maximum Humidity 100    
Minimum Humidity 75    
Precipitation  
Precipitation 0.03 in - - ()
Sea Level Pressure  
Sea Level Pressure 29.92 in    
Wind  
Wind Speed 3 mph (SSE)    
Max Wind Speed 9 mph    
Max Gust Speed -    
Visibility 10 miles    
Events Rain    
Averages and records for this station are not official NWS values.
T = Trace of Precipitation, MM = Missing Value Source: NWS Daily Summary

Daily Weather History Graph

Daily Weather History Graph

Search for Another Location

Airport or City:

Trip Planner

Search our weather history database for the weather conditions in past years. The results will help you decide how hot, cold, wet, or windy it might be!

Date:

Astronomy

Jul. 01, 2013 Rise Set
Actual Time 5:50 AM EDT 8:39 PM EDT
Civil Twilight 5:18 AM EDT 9:10 PM EDT
Nautical Twilight 4:38 AM EDT 9:50 PM EDT
Astronomical Twilight 3:53 AM EDT 10:35 PM EDT
Moon 1:16 AM EDT (7/1) 2:54 PM EDT (7/1)
Length of Visible Light 15h 52m
Length of Day
14h 48m
Waning Crescent, 35% of the Moon is Illuminated
Jul 1
Waning Crescent
Jul 8
New
Jul 15
First Quarter
Jul 22
Full
Jul 29
Last Quarter

Hourly Weather History & Observations

Time (EDT) Temp. Heat Index Dew Point Humidity Pressure Visibility Wind Dir Wind Speed Gust Speed Precip Events Conditions
12:15 AM 73.0 °F - 73.0 °F 100% 29.87 in 10.0 mi SSE 3.5 mph - N/A   Scattered Clouds
12:35 AM 73.0 °F - 73.0 °F 100% 29.87 in 10.0 mi Calm Calm - N/A   Scattered Clouds
12:55 AM 73.0 °F - 73.0 °F 100% 29.87 in 10.0 mi SSE 3.5 mph - N/A   Clear
1:15 AM 72.7 °F - 72.7 °F 100% 29.87 in 10.0 mi SE 3.5 mph - N/A Rain Light Rain
1:35 AM 72.7 °F - 72.7 °F 100% 29.87 in 10.0 mi SE 3.5 mph - N/A   Light Drizzle
1:55 AM 72.5 °F - 72.5 °F 100% 29.87 in 10.0 mi Calm Calm - N/A   Light Drizzle
2:15 AM 72.1 °F - 72.1 °F 100% 29.86 in 10.0 mi Calm Calm - N/A   Light Drizzle
2:35 AM 71.8 °F - 71.8 °F 100% 29.85 in 10.0 mi Calm Calm - N/A   Scattered Clouds
2:55 AM 71.8 °F - 71.8 °F 100% 29.86 in 10.0 mi Calm Calm - N/A   Clear
3:15 AM 72.0 °F - 72.0 °F 100% 29.86 in 10.0 mi Calm Calm - N/A   Light Drizzle
3:35 AM 72.0 °F - 72.0 °F 100% 29.86 in 10.0 mi Calm Calm - N/A   Overcast
3:55 AM 71.8 °F - 71.8 °F 100% 29.86 in 10.0 mi Calm Calm - N/A   Scattered Clouds
4:15 AM 71.6 °F - 71.6 °F 100% 29.86 in 10.0 mi Calm Calm - N/A   Scattered Clouds
4:35 AM 71.8 °F - 71.8 °F 100% 29.87 in 10.0 mi Calm Calm - N/A   Mostly Cloudy
4:55 AM 71.4 °F - 71.4 °F 100% 29.87 in 10.0 mi Calm Calm - N/A   Clear
5:15 AM 71.1 °F - 71.1 °F 100% 29.88 in 10.0 mi Calm Calm - N/A   Scattered Clouds
5:35 AM 71.1 °F - 71.1 °F 100% 29.89 in 10.0 mi Calm Calm - N/A   Mostly Cloudy
5:55 AM 71.4 °F - 71.4 °F 100% 29.90 in 7.0 mi Calm Calm - N/A   Drizzle
6:15 AM 71.6 °F - 71.6 °F 100% 29.90 in 7.0 mi Calm Calm - N/A   Light Drizzle
6:35 AM 71.8 °F - 71.8 °F 100% 29.90 in 10.0 mi Calm Calm - N/A   Overcast
6:55 AM 72.0 °F - 72.0 °F 100% 29.90 in 10.0 mi Calm Calm - N/A   Light Drizzle
7:15 AM 72.5 °F - 72.5 °F 100% 29.91 in 7.0 mi Calm Calm - N/A Rain Rain
7:35 AM 72.7 °F - 72.7 °F 100% 29.91 in 10.0 mi Calm Calm - N/A   Overcast
7:55 AM 73.4 °F - 73.4 °F 100% 29.91 in 10.0 mi Calm Calm - N/A   Overcast
8:15 AM 73.8 °F - 73.8 °F 100% 29.91 in 10.0 mi SSE 3.5 mph - N/A   Overcast
8:35 AM 74.7 °F - 74.7 °F 100% 29.91 in 10.0 mi South 3.5 mph - N/A   Drizzle
8:55 AM 74.3 °F - 74.3 °F 100% 29.92 in 7.0 mi Calm Calm - 0.01 in Rain Rain
9:15 AM 73.9 °F - 73.9 °F 100% 29.92 in 7.0 mi Calm Calm - 0.01 in Rain Rain
9:35 AM 75.4 °F - 75.4 °F 100% 29.92 in 10.0 mi Calm Calm - 0.01 in   Overcast
9:55 AM 75.7 °F - 75.7 °F 100% 29.92 in 10.0 mi South 3.5 mph - 0.01 in   Overcast
10:15 AM 75.9 °F - 75.9 °F 100% 29.93 in 10.0 mi South 4.6 mph - N/A   Overcast
10:35 AM 76.1 °F - 75.6 °F 98% 29.94 in 10.0 mi Calm Calm - N/A   Overcast
10:55 AM 75.6 °F - 75.6 °F 100% 29.94 in 10.0 mi South 4.6 mph - N/A   Light Drizzle
11:15 AM 76.1 °F - 76.1 °F 100% 29.92 in 10.0 mi SE 3.5 mph - N/A Rain Light Rain
11:35 AM 75.7 °F - 75.7 °F 100% 29.94 in 10.0 mi South 4.6 mph - 0.01 in Rain Light Rain
11:55 AM 76.1 °F - 76.1 °F 100% 29.92 in 10.0 mi Calm Calm - 0.01 in Rain Rain
12:15 PM 76.1 °F - 76.1 °F 100% 29.93 in 10.0 mi Calm Calm - N/A Rain Light Rain
12:35 PM 77.2 °F - 77.2 °F 100% 29.92 in 10.0 mi SE 8.1 mph - N/A   Mostly Cloudy
12:55 PM 78.3 °F - 77.4 °F 97% 29.93 in 10.0 mi SSE 4.6 mph - N/A   Scattered Clouds
1:15 PM 80.6 °F 87.9 °F 78.3 °F 93% 29.93 in 10.0 mi SSW 6.9 mph - N/A   Mostly Cloudy
1:35 PM 79.3 °F - 77.0 °F 93% 29.92 in 10.0 mi South 4.6 mph - N/A   Overcast
1:55 PM 80.1 °F 85.8 °F 77.0 °F 90% 29.92 in 10.0 mi South 5.8 mph - N/A   Overcast
2:15 PM 81.5 °F 89.0 °F 77.0 °F 86% 29.92 in 10.0 mi South 6.9 mph - N/A   Overcast
2:35 PM 82.6 °F 92.0 °F 77.9 °F 86% 29.92 in 10.0 mi SE 4.6 mph - N/A   Mostly Cloudy
2:55 PM 82.4 °F 90.9 °F 77.0 °F 84% 29.92 in 10.0 mi SSE 5.8 mph - N/A   Mostly Cloudy
3:15 PM 82.0 °F 89.4 °F 76.1 °F 82% 29.92 in 10.0 mi SSE 6.9 mph - N/A   Overcast
3:35 PM 82.8 °F 91.0 °F 76.3 °F 81% 29.92 in 10.0 mi SSE 4.6 mph - N/A   Overcast
3:55 PM 83.5 °F 91.6 °F 75.7 °F 77% 29.92 in 10.0 mi SSE 6.9 mph - N/A   Mostly Cloudy
4:15 PM 84.0 °F 92.9 °F 76.3 °F 77% 29.92 in 10.0 mi South 4.6 mph - N/A   Scattered Clouds
4:35 PM 84.4 °F 93.1 °F 75.7 °F 75% 29.92 in 10.0 mi SSE 6.9 mph - N/A   Scattered Clouds
4:55 PM 84.2 °F 93.0 °F 75.7 °F 76% 29.93 in 10.0 mi SSW 8.1 mph - N/A   Mostly Cloudy
5:15 PM 84.6 °F 93.9 °F 76.3 °F 76% 29.92 in 10.0 mi South 6.9 mph - N/A   Scattered Clouds
5:35 PM 83.3 °F 91.4 °F 75.9 °F 78% 29.92 in 10.0 mi ESE 5.8 mph - N/A   Scattered Clouds
5:55 PM 84.4 °F 94.6 °F 77.2 °F 79% 29.92 in 10.0 mi NE 3.5 mph - N/A   Clear
6:15 PM 83.7 °F 92.7 °F 76.5 °F 79% 29.92 in 10.0 mi SSE 3.5 mph - N/A   Clear
6:35 PM 82.8 °F 91.0 °F 76.5 °F 81% 29.93 in 10.0 mi East 4.6 mph - N/A   Clear
6:55 PM 82.8 °F 91.0 °F 76.3 °F 81% 29.93 in 10.0 mi SSE 4.6 mph - N/A   Scattered Clouds
7:15 PM 82.4 °F 90.6 °F 76.8 °F 83% 29.93 in 10.0 mi SSE 4.6 mph - N/A   Scattered Clouds
7:35 PM 82.4 °F 90.9 °F 77.2 °F 84% 29.94 in 10.0 mi SE 4.6 mph - N/A   Clear
7:55 PM 81.5 °F 89.0 °F 76.8 °F 86% 29.94 in 10.0 mi SSE 6.9 mph - N/A   Scattered Clouds
8:15 PM 80.4 °F 86.1 °F 75.7 °F 86% 29.94 in 10.0 mi South 9.2 mph - N/A   Scattered Clouds
8:35 PM 79.2 °F - 75.7 °F 89% 29.95 in 10.0 mi SSE 8.1 mph - N/A   Scattered Clouds
8:55 PM 78.4 °F - 76.1 °F 92% 29.95 in 10.0 mi SSE 5.8 mph - N/A   Clear
9:15 PM 77.9 °F - 76.5 °F 95% 29.95 in 10.0 mi SSE 4.6 mph - N/A   Clear
9:35 PM 77.5 °F - 76.6 °F 97% 29.96 in 10.0 mi SSE 3.5 mph - N/A   Scattered Clouds
9:55 PM 77.4 °F - 76.6 °F 98% 29.97 in 10.0 mi SSE 5.8 mph - N/A   Scattered Clouds
10:15 PM 77.2 °F - 76.8 °F 99% 29.97 in 10.0 mi SSE 5.8 mph - N/A   Mostly Cloudy
10:35 PM 77.5 °F - 77.0 °F 98% 29.98 in 10.0 mi Calm Calm - N/A   Overcast
10:55 PM 77.4 °F - 77.0 °F 99% 29.98 in 10.0 mi SSE 4.6 mph - N/A   Overcast
11:15 PM 77.5 °F - 77.0 °F 98% 29.98 in 10.0 mi South 3.5 mph - N/A   Overcast
11:35 PM 77.9 °F - 77.2 °F 98% 29.99 in 10.0 mi South 4.6 mph - N/A   Overcast
11:55 PM 77.4 °F - 77.0 °F 99% 29.98 in 10.0 mi South 4.6 mph - N/A   Mostly Cloudy